FW1833 Weather Reports


time (UTC)temp
C
wind
direction
speed
KPH
gust
KPH
rain 1hr
cm
rain 24hr
cm
rain mn
cm
humidity
%
barometer
mb
20260505031554 9 284 3.2 14.5 0.00 0.91 0.00 75 1006.2
20260505030048 10 234 6.4 19.3 0.00 0.91 0.00 74 1006.1
20260505024547 10 272 4.8 24.1 0.00 0.94 0.91 73 1006.0
20260505023046 10 212 6.4 16.1 0.00 0.94 0.91 72 1005.7
20260505021543 10 226 4.8 14.5 0.00 0.94 0.91 72 1005.5
20260505020042 10 246 1.6 14.5 0.00 0.94 0.91 72 1005.3
20260505014542 10 210 6.4 20.9 0.00 0.99 0.91 72 1005.3
20260505013057 10 226 1.6 11.3 0.00 0.99 0.91 72 1005.2
20260505011539 10 243 1.6 12.9 0.00 0.99 0.91 71 1005.1
20260505010037 10 200 1.6 6.4 0.00 0.99 0.91 70 1005.1
20260505004537 10 246 3.2 14.5 0.00 1.19 0.91 69 1005.0
20260505003035 10 189 6.4 19.3 0.00 1.19 0.91 70 1004.8
20260505001534 10 225 3.2 17.7 0.00 1.19 0.91 71 1004.6
20260505000049 10 305 6.4 14.5 0.00 1.19 0.91 72 1004.6
20260504234533 10 310 4.8 20.9 0.00 1.37 0.91 72 1004.4
20260504233030 10 291 16.1 29.0 0.00 1.37 0.91 65 1004.0
20260504231527 11 182 6.4 22.5 0.00 1.37 0.91 50 1004.0
20260504230023 11 225 11.3 22.5 0.00 1.37 0.91 52 1003.4
20260504224521 11 156 6.4 16.1 0.00 1.85 0.91 54 1003.1
20260504223021 12 239 3.2 12.9 0.00 1.85 0.91 54 1003.0
20260504221520 12 233 4.8 17.7 0.00 1.85 0.91 52 1003.0
20260504220029 13 238 6.4 19.3 0.00 1.85 0.91 51 1002.9
20260504214519 12 303 4.8 27.4 0.00 2.24 0.91 52 1002.9
20260504213009 13 273 6.4 25.7 0.00 2.24 0.91 53 1002.7
20260504211510 12 261 9.7 27.4 0.00 2.24 0.91 54 1002.6
20260504210005 12 271 12.9 30.6 0.00 2.24 0.91 54 1002.4
20260504204503 12 294 14.5 33.8 0.00 2.39 0.91 54 1002.1
20260504203002 12 294 20.9 37.0 0.00 2.39 0.91 53 1002.0
20260504201621 12 294 14.5 35.4 0.00 2.39 0.91 54 1002.0
20260504200100 12 305 14.5 37.0 0.00 2.39 0.91 56 1001.7
20260504194602 12 237 14.5 33.8 0.00 2.44 0.91 58 1001.3
20260504193059 12 315 16.1 56.3 0.00 2.44 0.91 56 1001.1
20260504191600 12 318 11.3 35.4 0.00 2.44 0.91 55 1000.8
20260504190112 12 286 16.1 40.2 0.00 2.44 0.91 56 1000.6
20260504184603 11 246 16.1 45.1 0.00 2.46 0.91 59 1000.4
20260504183046 11 313 14.5 49.9 0.00 2.46 0.91 62 1000.2
20260504181547 11 298 16.1 46.7 0.00 2.46 0.91 64 999.9
20260504180042 11 281 16.1 51.5 0.00 2.46 0.91 68 999.9
20260504174537 10 275 11.3 41.8 0.00 2.46 0.91 73 999.6
20260504173034 10 285 19.3 51.5 0.00 2.46 0.91 73 999.6
20260504171533 10 297 14.5 43.5 0.00 2.46 0.91 78 999.1
20260504140107 5 287 9.7 33.8 0.15 2.41 0.89 96 995.7
20260504100113 2 280 9.7 41.8 0.05 1.96 0.43 96 986.1
20260504081536 3 270 11.3 40.2 0.05 1.85 0.33 97 980.2
20260504050001 3 214 0.0 6.4 0.05 1.65 0.10 98 974.6
20260504044601 3 169 0.0 3.2 0.05 1.63 0.08 98 974.4
20260504043115 3 169 0.0 8.0 0.05 1.60 0.05 98 974.0
20260504041557 3 118 6.4 12.9 0.05 1.60 0.05 98 974.1
20260504040055 3 103 6.4 25.7 0.05 1.57 0.05 97 974.4
20260504034553 3 132 8.0 30.6 0.05 1.55 0.03 97 975.0
20260504033054 3 120 12.9 30.6 0.05 1.55 0.03 97 975.7